Cando, ND

2:36 AM CDT on May 01, 2017 (GMT -0500)
Cando

Weather History for K9D7 - June, 2013

Change the Weather History Date:

Sunday, June 23, 2013

  Actual Average (KDVL) Record (KDVL)
Temperature  
Mean Temperature 62 °F -  
Max Temperature 68 °F 76 °F 92 °F (1987)
Min Temperature 57 °F 54 °F 0 °F (2004)
Degree Days  
Heating Degree Days 2    
Growing Degree Days 12 (Base 50)    
Moisture  
Dew Point 62 °F    
Average Humidity 98    
Maximum Humidity 100    
Minimum Humidity 78    
Precipitation  
Precipitation 0.64 in - - ()
Sea Level Pressure  
Sea Level Pressure 29.68 in    
Wind  
Wind Speed 12 mph (West)    
Max Wind Speed 29 mph    
Max Gust Speed 37 mph    
Visibility 10 miles    
Events Rain , Thunderstorm    
Averages and records for this station are not official NWS values.
T = Trace of Precipitation, MM = Missing Value Source: NWS Daily Summary

Daily Weather History Graph

Daily Weather History Graph

Search for Another Location

Airport or City:

Trip Planner

Search our weather history database for the weather conditions in past years. The results will help you decide how hot, cold, wet, or windy it might be!

Date:

Astronomy

Jun. 23, 2013 Rise Set
Actual Time 5:35 AM CDT 9:42 PM CDT
Civil Twilight 4:53 AM CDT 10:24 PM CDT
Nautical Twilight 3:54 AM CDT 11:24 PM CDT
Astronomical Twilight 1:56 AM CDT 1:21 AM CDT
Moon 9:48 PM CDT (6/23) 6:01 AM CDT (6/23)
Length of Visible Light 17h 31m
Length of Day
16h 07m
Full, 100% of the Moon is Illuminated
Jun 23
Full
Jun 29
Last Quarter
Jul 8
New
Jul 15
First Quarter
Jul 22
Full

Hourly Weather History & Observations

Time (CDT) Temp. Dew Point Humidity Pressure Visibility Wind Dir Wind Speed Gust Speed Precip Events Conditions
12:15 AM 68.0 °F 68.0 °F 100% 29.77 in 10.0 mi NNE 6.9 mph - N/A   Mostly Cloudy
12:35 AM 68.0 °F 68.0 °F 100% 29.77 in 10.0 mi NNE 6.9 mph - N/A Thunderstorm Mostly Cloudy
12:55 AM 68.0 °F 68.0 °F 100% 29.76 in 10.0 mi ENE 4.6 mph - N/A Thunderstorm Mostly Cloudy
1:15 AM 59.0 °F 59.0 °F 100% 29.78 in 0.2 mi West 24.2 mph 34.5 mph 0.42 in Rain , Thunderstorm Heavy Thunderstorms and Rain
1:35 AM 59.0 °F 59.0 °F 100% 29.74 in 2.5 mi NNW 13.8 mph - 0.59 in Rain , Thunderstorm Thunderstorms and Rain
1:55 AM 59.0 °F 59.0 °F 100% 29.70 in 6.0 mi NNE 5.8 mph - 0.64 in Rain , Thunderstorm Light Rain
2:15 AM 60.8 °F 60.8 °F 100% 29.72 in 10.0 mi NE 4.6 mph - N/A   Mostly Cloudy
2:35 AM 60.8 °F 60.8 °F 100% 29.71 in 10.0 mi NE 5.8 mph - N/A   Mostly Cloudy
2:55 AM 60.8 °F 60.8 °F 100% 29.72 in 10.0 mi ENE 4.6 mph - N/A   Overcast
3:15 AM 60.8 °F 60.8 °F 100% 29.73 in 10.0 mi ENE 4.6 mph - N/A   Overcast
3:35 AM 60.8 °F 60.8 °F 100% 29.72 in 10.0 mi ENE 5.8 mph - N/A   Overcast
3:55 AM 62.6 °F 62.6 °F 100% 29.70 in 10.0 mi ENE 8.1 mph - N/A   Overcast
4:15 AM 62.6 °F 62.6 °F 100% 29.70 in 10.0 mi ENE 9.2 mph - N/A   Overcast
4:35 AM 62.6 °F 62.6 °F 100% 29.70 in 10.0 mi East 10.4 mph - N/A   Overcast
4:55 AM 62.6 °F 62.6 °F 100% 29.68 in 10.0 mi East 8.1 mph - N/A   Overcast
5:15 AM 62.6 °F 62.6 °F 100% 29.67 in 10.0 mi ENE 9.2 mph - N/A   Overcast
5:35 AM 62.6 °F 62.6 °F 100% 29.66 in 10.0 mi ENE 10.4 mph - N/A   Overcast
5:55 AM 62.6 °F 62.6 °F 100% 29.67 in 10.0 mi East 9.2 mph - N/A   Overcast
6:15 AM 62.6 °F 62.6 °F 100% 29.66 in 10.0 mi East 8.1 mph - N/A   Overcast
6:35 AM 64.4 °F 64.4 °F 100% 29.65 in 10.0 mi ENE 8.1 mph - N/A   Overcast
6:55 AM 64.4 °F 64.4 °F 100% 29.64 in 10.0 mi ENE 10.4 mph - N/A   Overcast
7:15 AM 64.4 °F 64.4 °F 100% 29.64 in 10.0 mi East 6.9 mph - N/A   Overcast
7:35 AM 64.4 °F 64.4 °F 100% 29.63 in 10.0 mi ESE 6.9 mph - N/A   Overcast
7:55 AM 66.2 °F 66.2 °F 100% 29.63 in 10.0 mi ESE 6.9 mph - N/A   Overcast
8:15 AM 66.2 °F 66.2 °F 100% 29.62 in 4.0 mi SW 6.9 mph 18.4 mph N/A Rain Light Rain
8:35 AM 66.2 °F 66.2 °F 100% 29.63 in 7.0 mi SSW 9.2 mph - N/A   Mostly Cloudy
8:55 AM 64.4 °F 64.4 °F 100% 29.63 in 10.0 mi SW 11.5 mph - N/A   Mostly Cloudy
9:15 AM 62.6 °F 62.6 °F 100% 29.63 in 10.0 mi SW 11.5 mph 19.6 mph N/A   Overcast
9:35 AM 62.6 °F 62.6 °F 100% 29.65 in 10.0 mi SW 12.7 mph - N/A   Overcast
9:55 AM 62.6 °F 62.6 °F 100% 29.63 in 8.0 mi SW 12.7 mph - N/A Rain Light Rain
10:15 AM 62.6 °F 62.6 °F 100% 29.63 in 9.0 mi SW 9.2 mph - N/A Rain Light Rain
10:35 AM 62.6 °F 62.6 °F 100% 29.63 in 10.0 mi SSW 12.7 mph - N/A   Scattered Clouds
10:55 AM 62.6 °F 62.6 °F 100% 29.62 in 10.0 mi SW 13.8 mph - N/A   Partly Cloudy
11:15 AM 62.6 °F 62.6 °F 100% 29.59 in 10.0 mi West 19.6 mph - N/A   Mostly Cloudy
11:35 AM 60.8 °F 60.8 °F 100% 29.57 in 10.0 mi West 19.6 mph 25.3 mph N/A   Overcast
11:55 AM 59.0 °F 59.0 °F 100% 29.58 in 10.0 mi West 25.3 mph 32.2 mph N/A   Mostly Cloudy
12:15 PM 60.8 °F 60.8 °F 100% 29.58 in 10.0 mi West 21.9 mph 29.9 mph N/A   Mostly Cloudy
12:35 PM 62.6 °F 62.6 °F 100% 29.58 in 10.0 mi West 23.0 mph 31.1 mph N/A   Overcast
12:55 PM 62.6 °F 62.6 °F 100% 29.59 in 10.0 mi West 21.9 mph 31.1 mph N/A   Overcast
1:15 PM 62.6 °F 62.6 °F 100% 29.60 in 10.0 mi West 23.0 mph 33.4 mph N/A   Overcast
1:35 PM 64.4 °F 64.4 °F 100% 29.61 in 10.0 mi West 20.7 mph 26.5 mph N/A   Overcast
1:55 PM 62.6 °F 62.6 °F 100% 29.62 in 10.0 mi West 23.0 mph 29.9 mph N/A   Overcast
2:15 PM 64.4 °F 64.4 °F 100% 29.62 in 10.0 mi West 24.2 mph 29.9 mph N/A   Overcast
2:35 PM 64.4 °F 62.6 °F 94% 29.63 in 10.0 mi West 24.2 mph 31.1 mph N/A   Overcast
2:55 PM 66.2 °F 64.4 °F 94% 29.63 in 10.0 mi WNW 24.2 mph 31.1 mph N/A   Overcast
3:15 PM 66.2 °F 62.6 °F 88% 29.64 in 10.0 mi WNW 19.6 mph 32.2 mph N/A   Mostly Cloudy
3:35 PM 66.2 °F 62.6 °F 88% 29.65 in 10.0 mi WNW 23.0 mph 31.1 mph N/A   Overcast
3:55 PM 66.2 °F 59.0 °F 78% 29.66 in 10.0 mi WNW 23.0 mph 28.8 mph N/A   Overcast
4:15 PM 66.2 °F 59.0 °F 78% 29.66 in 10.0 mi WNW 28.8 mph 36.8 mph N/A   Overcast
4:35 PM 62.6 °F 62.6 °F 100% 29.67 in 10.0 mi West 24.2 mph 32.2 mph N/A   Mostly Cloudy
4:55 PM 66.2 °F 64.4 °F 94% 29.68 in 10.0 mi West 24.2 mph 29.9 mph N/A   Scattered Clouds
5:15 PM 66.2 °F 64.4 °F 94% 29.68 in 10.0 mi West 25.3 mph - N/A   Scattered Clouds
5:35 PM 64.4 °F 62.6 °F 94% 29.69 in 10.0 mi West 19.6 mph 27.6 mph N/A   Overcast
5:55 PM 64.4 °F 62.6 °F 94% 29.70 in 10.0 mi West 20.7 mph 24.2 mph N/A   Overcast
6:15 PM 64.4 °F 62.6 °F 94% 29.70 in 10.0 mi WNW 23.0 mph - N/A   Overcast
6:35 PM 64.4 °F 59.0 °F 83% 29.71 in 10.0 mi WNW 17.3 mph 26.5 mph N/A   Overcast
6:55 PM 62.6 °F 60.8 °F 94% 29.71 in 10.0 mi WNW 15.0 mph 19.6 mph N/A   Scattered Clouds
7:15 PM 62.6 °F 62.6 °F 100% 29.72 in 8.0 mi West 13.8 mph - N/A Rain Light Rain
7:35 PM 60.8 °F 60.8 °F 100% 29.73 in 10.0 mi West 11.5 mph - N/A   Mostly Cloudy
7:55 PM 62.6 °F 60.8 °F 94% 29.75 in 10.0 mi WNW 16.1 mph 27.6 mph N/A   Overcast
8:15 PM 60.8 °F 59.0 °F 94% 29.73 in 6.0 mi West 12.7 mph 19.6 mph N/A Rain Light Rain
8:35 PM 59.0 °F 59.0 °F 100% 29.72 in 10.0 mi West 8.1 mph - N/A   Scattered Clouds
8:55 PM 59.0 °F 59.0 °F 100% 29.71 in 10.0 mi WSW 9.2 mph - N/A   Clear
9:15 PM 59.0 °F 59.0 °F 100% 29.72 in 10.0 mi SW 9.2 mph - N/A   Clear
9:35 PM 59.0 °F 59.0 °F 100% 29.72 in 10.0 mi SW 10.4 mph - N/A   Clear
9:55 PM 59.0 °F 59.0 °F 100% 29.72 in 10.0 mi SW 9.2 mph - N/A   Clear
10:15 PM 59.0 °F 59.0 °F 100% 29.73 in 10.0 mi SSW 10.4 mph - N/A   Clear
10:35 PM 59.0 °F 59.0 °F 100% 29.73 in 10.0 mi SSW 9.2 mph - N/A   Clear
10:55 PM 57.2 °F 57.2 °F 100% 29.73 in 10.0 mi SSW 8.1 mph - N/A   Clear
11:15 PM 57.2 °F 57.2 °F 100% 29.73 in 10.0 mi SSW 8.1 mph - N/A   Clear
11:35 PM 57.2 °F 57.2 °F 100% 29.73 in 10.0 mi SSW 9.2 mph - N/A   Clear
11:55 PM 57.2 °F 57.2 °F 100% 29.73 in 10.0 mi SSW 11.5 mph - N/A   Clear